| time (UTC) | temp F | wind direction | speed knots | gust knots | rain 1hr in | rain 24hr in | rain mn in | humidity % | barometer mb |
| 20260505035549 | 68 | 217 | 1.7 | 1.7 | 0.00 | 0.00 | 0.00 | 52 | 1012.8 |
| 20260505035045 | 68 | 192 | 2.6 | 5.2 | 0.00 | 0.00 | 0.00 | 52 | 1013.0 |
| 20260505034542 | 68 | 190 | 0.9 | 1.7 | 0.00 | 0.00 | 0.00 | 52 | 1012.7 |
| 20260505034039 | 68 | 216 | 1.7 | 1.7 | 0.00 | 0.00 | 0.00 | 52 | 1012.8 |
| 20260505033536 | 68 | 194 | 1.7 | 2.6 | 0.00 | 0.00 | 0.00 | 51 | 1012.7 |
| 20260505033034 | 69 | 168 | 1.7 | 1.7 | 0.00 | 0.00 | 0.00 | 51 | 1012.7 |
| 20260505032532 | 69 | 210 | 1.7 | 1.7 | 0.00 | 0.00 | 0.00 | 51 | 1012.9 |
| 20260505032028 | 69 | 216 | 0.9 | 1.7 | 0.00 | 0.00 | 0.00 | 51 | 1012.7 |
| 20260505031525 | 69 | 205 | 1.7 | 2.6 | 0.00 | 0.00 | 0.00 | 50 | 1012.6 |
| 20260505031021 | 69 | 210 | 2.6 | 4.3 | 0.00 | 0.00 | 0.00 | 50 | 1012.8 |
| 20260505030518 | 69 | 177 | 2.6 | 2.6 | 0.00 | 0.00 | 0.00 | 50 | 1012.9 |
| 20260505030015 | 69 | 158 | 4.3 | 6.1 | 0.00 | 0.00 | 0.00 | 49 | 1012.9 |
| 20260505025510 | 69 | 136 | 2.6 | 2.6 | 0.00 | 0.00 | 0.00 | 49 | 1012.7 |
| 20260505025010 | 70 | 174 | 3.5 | 4.3 | 0.00 | 0.00 | 0.00 | 49 | 1012.8 |
| 20260505024506 | 70 | 173 | 4.3 | 5.2 | 0.00 | 0.00 | 0.00 | 49 | 1012.8 |
| 20260505024003 | 70 | 159 | 1.7 | 1.7 | 0.00 | 0.00 | 0.00 | 48 | 1012.8 |
| 20260505023500 | 70 | 259 | 3.5 | 4.3 | 0.00 | 0.00 | 0.00 | 48 | 1012.9 |
| 20260505022958 | 70 | 179 | 2.6 | 2.6 | 0.00 | 0.00 | 0.00 | 48 | 1012.7 |
| 20260505022455 | 70 | 191 | 2.6 | 5.2 | 0.00 | 0.00 | 0.00 | 47 | 1012.9 |
| 20260505021952 | 70 | 207 | 2.6 | 4.3 | 0.00 | 0.00 | 0.00 | 47 | 1012.8 |
| 20260505021448 | 70 | 185 | 4.3 | 7.0 | 0.00 | 0.00 | 0.00 | 47 | 1012.4 |
| 20260505020944 | 70 | 206 | 4.3 | 5.2 | 0.00 | 0.00 | 0.00 | 47 | 1012.6 |
| 20260505020439 | 71 | 151 | 2.6 | 4.3 | 0.00 | 0.00 | 0.00 | 47 | 1012.7 |
| 20260505015937 | 71 | 210 | 3.5 | 4.3 | 0.00 | 0.00 | 0.00 | 46 | 1012.6 |
| 20260505015434 | 71 | 146 | 0.9 | 1.7 | 0.00 | 0.00 | 0.00 | 46 | 1012.8 |
| 20260505014931 | 71 | 195 | 4.3 | 6.1 | 0.00 | 0.00 | 0.00 | 46 | 1012.6 |
| 20260505014428 | 71 | 164 | 2.6 | 2.6 | 0.00 | 0.00 | 0.00 | 46 | 1012.5 |
| 20260505013925 | 72 | 183 | 2.6 | 4.3 | 0.00 | 0.00 | 0.00 | 45 | 1012.5 |
| 20260505013422 | 72 | 189 | 1.7 | 2.6 | 0.00 | 0.00 | 0.00 | 45 | 1012.4 |
| 20260505012920 | 72 | 133 | 3.5 | 5.2 | 0.00 | 0.00 | 0.00 | 45 | 1012.3 |
| 20260505012418 | 72 | 137 | 5.2 | 7.8 | 0.00 | 0.00 | 0.00 | 45 | 1012.2 |
| 20260505011914 | 72 | 151 | 3.5 | 5.2 | 0.00 | 0.00 | 0.00 | 45 | 1012.3 |
| 20260505011410 | 72 | 196 | 2.6 | 2.6 | 0.00 | 0.00 | 0.00 | 45 | 1012.2 |
| 20260505010907 | 72 | 184 | 3.5 | 6.1 | 0.00 | 0.00 | 0.00 | 45 | 1012.1 |
| 20260505010403 | 72 | 174 | 1.7 | 1.7 | 0.00 | 0.00 | 0.00 | 45 | 1012.2 |
| 20260505005859 | 72 | 206 | 4.3 | 5.2 | 0.00 | 0.00 | 0.00 | 45 | 1012.2 |
| 20260505005355 | 72 | 176 | 3.5 | 4.3 | 0.00 | 0.00 | 0.00 | 46 | 1012.1 |
| 20260505004853 | 72 | 212 | 0.9 | 0.9 | 0.00 | 0.00 | 0.00 | 46 | 1012.2 |
| 20260505004349 | 72 | 207 | 0.9 | 1.7 | 0.00 | 0.00 | 0.00 | 45 | 1011.8 |
| 20260505003847 | 72 | 218 | 0.9 | 0.9 | 0.00 | 0.00 | 0.00 | 45 | 1011.9 |
| 20260505003344 | 73 | 241 | 0.9 | 1.7 | 0.00 | 0.00 | 0.00 | 45 | 1011.9 |
| 20260505002840 | 73 | 173 | 2.6 | 2.6 | 0.00 | 0.00 | 0.00 | 45 | 1011.7 |
| 20260505002337 | 73 | 199 | 1.7 | 1.7 | 0.00 | 0.00 | 0.00 | 44 | 1012.0 |
| 20260505001835 | 74 | 180 | 2.6 | 4.3 | 0.00 | 0.00 | 0.00 | 44 | 1011.9 |
| 20260505001332 | 74 | 187 | 0.9 | 1.7 | 0.00 | 0.00 | 0.00 | 44 | 1011.8 |
| 20260505000829 | 74 | 195 | 2.6 | 4.3 | 0.00 | 0.00 | 0.00 | 44 | 1011.7 |
| 20260505000327 | 74 | 187 | 3.5 | 4.3 | 0.00 | 0.00 | 0.00 | 44 | 1011.8 |
| 20260504235823 | 74 | 193 | 4.3 | 6.1 | 0.00 | 0.00 | 0.00 | 43 | 1011.9 |
| 20260504235320 | 74 | 189 | 2.6 | 4.3 | 0.00 | 0.00 | 0.00 | 43 | 1011.8 |
| 20260504234817 | 74 | 216 | 6.1 | 7.8 | 0.00 | 0.00 | 0.00 | 43 | 1011.7 |
| 20260504234315 | 74 | 226 | 4.3 | 5.2 | 0.00 | 0.00 | 0.00 | 42 | 1011.8 |
| 20260504233811 | 74 | 103 | 4.3 | 7.0 | 0.00 | 0.00 | 0.00 | 42 | 1011.8 |
| 20260504233307 | 75 | 239 | 2.6 | 4.3 | 0.00 | 0.00 | 0.00 | 42 | 1011.7 |
| 20260504232804 | 75 | 177 | 5.2 | 7.0 | 0.00 | 0.00 | 0.00 | 41 | 1011.9 |
| 20260504232301 | 75 | 165 | 6.1 | 7.0 | 0.00 | 0.00 | 0.00 | 41 | 1011.6 |
| 20260504231758 | 75 | 134 | 4.3 | 6.1 | 0.00 | 0.00 | 0.00 | 40 | 1011.4 |
| 20260504231254 | 75 | 162 | 4.3 | 5.2 | 0.00 | 0.00 | 0.00 | 40 | 1011.6 |
| 20260504230750 | 75 | 187 | 5.2 | 6.1 | 0.00 | 0.00 | 0.00 | 40 | 1011.6 |
| 20260504230248 | 76 | 180 | 7.8 | 9.6 | 0.00 | 0.00 | 0.00 | 39 | 1011.7 |
| 20260504225747 | 76 | 207 | 6.1 | 8.7 | 0.00 | 0.00 | 0.00 | 39 | 1011.5 |
| 20260504225243 | 76 | 92 | 4.3 | 6.1 | 0.00 | 0.00 | 0.00 | 39 | 1011.4 |
| 20260504224740 | 76 | 186 | 4.3 | 5.2 | 0.00 | 0.00 | 0.00 | 39 | 1011.6 |
| 20260504224237 | 76 | 282 | 3.5 | 5.2 | 0.00 | 0.00 | 0.00 | 39 | 1011.6 |
| 20260504223733 | 76 | 158 | 6.1 | 7.8 | 0.00 | 0.00 | 0.00 | 38 | 1011.6 |
| 20260504223229 | 76 | 155 | 7.0 | 8.7 | 0.00 | 0.00 | 0.00 | 38 | 1011.8 |
| 20260504222726 | 76 | 144 | 3.5 | 4.3 | 0.00 | 0.00 | 0.00 | 38 | 1011.5 |
| 20260504222223 | 76 | 197 | 8.7 | 11.3 | 0.00 | 0.00 | 0.00 | 38 | 1011.6 |
| 20260504221721 | 76 | 193 | 6.1 | 7.8 | 0.00 | 0.00 | 0.00 | 37 | 1011.6 |
| 20260504221218 | 76 | 164 | 6.1 | 7.8 | 0.00 | 0.00 | 0.00 | 37 | 1011.7 |
| 20260504220714 | 77 | 223 | 6.1 | 7.8 | 0.00 | 0.00 | 0.00 | 37 | 1011.7 |
| 20260504220212 | 76 | 188 | 4.3 | 6.1 | 0.00 | 0.00 | 0.00 | 37 | 1011.9 |
| 20260504215708 | 76 | 192 | 5.2 | 9.6 | 0.00 | 0.00 | 0.00 | 36 | 1011.7 |
| 20260504215205 | 77 | 216 | 7.0 | 13.9 | 0.00 | 0.00 | 0.00 | 37 | 1011.6 |
| 20260504214701 | 77 | 188 | 11.3 | 15.6 | 0.00 | 0.00 | 0.00 | 37 | 1011.5 |
| 20260504214158 | 77 | 193 | 9.6 | 12.2 | 0.00 | 0.00 | 0.00 | 36 | 1011.7 |
| 20260504213654 | 77 | 238 | 5.2 | 9.6 | 0.00 | 0.00 | 0.00 | 36 | 1011.6 |
| 20260504213151 | 76 | 139 | 3.5 | 6.1 | 0.00 | 0.00 | 0.00 | 36 | 1011.7 |
| 20260504212647 | 76 | 215 | 7.8 | 9.6 | 0.00 | 0.00 | 0.00 | 36 | 1011.8 |
| 20260504212144 | 77 | 245 | 6.1 | 7.0 | 0.00 | 0.00 | 0.00 | 36 | 1011.6 |
| 20260504211642 | 77 | 268 | 0.9 | 1.7 | 0.00 | 0.00 | 0.00 | 35 | 1011.6 |
| 20260504211138 | 77 | 196 | 6.1 | 7.0 | 0.00 | 0.00 | 0.00 | 35 | 1011.6 |
| 20260504210636 | 77 | 160 | 4.3 | 7.0 | 0.00 | 0.00 | 0.00 | 34 | 1011.7 |
| 20260504210132 | 78 | 220 | 9.6 | 11.3 | 0.00 | 0.00 | 0.00 | 34 | 1011.5 |
| 20260504205630 | 77 | 193 | 5.2 | 7.8 | 0.00 | 0.00 | 0.00 | 34 | 1011.9 |
| 20260504205127 | 77 | 100 | 5.2 | 6.1 | 0.00 | 0.00 | 0.00 | 34 | 1011.8 |
| 20260504204625 | 77 | 205 | 6.1 | 8.7 | 0.00 | 0.00 | 0.00 | 34 | 1011.9 |
| 20260504204124 | 78 | 191 | 7.8 | 9.6 | 0.00 | 0.00 | 0.00 | 34 | 1011.8 |
| 20260504203622 | 77 | 141 | 7.0 | 9.6 | 0.00 | 0.00 | 0.00 | 34 | 1011.7 |
| 20260504203119 | 77 | 184 | 7.8 | 13.0 | 0.00 | 0.00 | 0.00 | 34 | 1012.0 |
| 20260504202614 | 78 | 219 | 6.1 | 8.7 | 0.00 | 0.00 | 0.00 | 34 | 1011.8 |
| 20260504202111 | 78 | 160 | 3.5 | 5.2 | 0.00 | 0.00 | 0.00 | 34 | 1011.7 |
| 20260504201608 | 77 | 223 | 2.6 | 2.6 | 0.00 | 0.00 | 0.00 | 34 | 1012.1 |
| 20260504201106 | 79 | 255 | 4.3 | 7.0 | 0.00 | 0.00 | 0.00 | 33 | 1012.1 |
| 20260504200603 | 79 | 199 | 3.5 | 6.1 | 0.00 | 0.00 | 0.00 | 32 | 1012.1 |
| 20260504200059 | 78 | 215 | 4.3 | 7.0 | 0.00 | 0.00 | 0.00 | 33 | 1012.3 |
| 20260504195555 | 78 | 193 | 7.8 | 11.3 | 0.00 | 0.00 | 0.00 | 34 | 1012.2 |
| 20260504195052 | 78 | 214 | 2.6 | 2.6 | 0.00 | 0.00 | 0.00 | 34 | 1012.2 |
| 20260504194548 | 78 | 305 | 4.3 | 5.2 | 0.00 | 0.00 | 0.00 | 34 | 1012.2 |
| 20260504194044 | 77 | 237 | 4.3 | 7.0 | 0.00 | 0.00 | 0.00 | 35 | 1012.3 |
| 20260504193541 | 76 | 211 | 5.2 | 7.0 | 0.00 | 0.00 | 0.00 | 35 | 1012.6 |
| 20260504193039 | 76 | 261 | 4.3 | 6.1 | 0.00 | 0.00 | 0.00 | 35 | 1012.5 |
| 20260504192537 | 76 | 205 | 3.5 | 5.2 | 0.00 | 0.00 | 0.00 | 35 | 1012.6 |
| 20260504192035 | 77 | 242 | 4.3 | 5.2 | 0.00 | 0.00 | 0.00 | 35 | 1012.8 |
| 20260504191533 | 76 | 190 | 5.2 | 7.0 | 0.00 | 0.00 | 0.00 | 35 | 1013.1 |
| 20260504191029 | 75 | 209 | 9.6 | 13.9 | 0.00 | 0.00 | 0.00 | 36 | 1013.2 |
| 20260504190525 | 76 | 184 | 2.6 | 5.2 | 0.00 | 0.00 | 0.00 | 34 | 1013.0 |
| 20260504190021 | 76 | 182 | 4.3 | 6.1 | 0.00 | 0.00 | 0.00 | 35 | 1013.3 |
| 20260504185518 | 75 | 210 | 6.1 | 7.8 | 0.00 | 0.00 | 0.00 | 35 | 1013.6 |
| 20260504185015 | 75 | 225 | 8.7 | 9.6 | 0.00 | 0.00 | 0.00 | 36 | 1013.4 |
| 20260504184510 | 75 | 231 | 5.2 | 7.8 | 0.00 | 0.00 | 0.00 | 35 | 1013.4 |
| 20260504184006 | 75 | 228 | 5.2 | 7.0 | 0.00 | 0.00 | 0.00 | 35 | 1013.7 |
| 20260504183503 | 75 | 181 | 2.6 | 5.2 | 0.00 | 0.00 | 0.00 | 36 | 1013.7 |
| 20260504183001 | 75 | 43 | 1.7 | 2.6 | 0.00 | 0.00 | 0.00 | 36 | 1013.7 |
| 20260504182458 | 75 | 257 | 2.6 | 4.3 | 0.00 | 0.00 | 0.00 | 37 | 1014.0 |
| 20260504181955 | 75 | 239 | 4.3 | 5.2 | 0.00 | 0.00 | 0.00 | 37 | 1013.9 |
| 20260504181452 | 74 | 155 | 4.3 | 6.1 | 0.00 | 0.00 | 0.00 | 37 | 1013.7 |
| 20260504180950 | 74 | 185 | 7.8 | 11.3 | 0.00 | 0.00 | 0.00 | 37 | 1013.9 |
| 20260504180449 | 73 | 209 | 4.3 | 5.2 | 0.00 | 0.00 | 0.00 | 37 | 1013.9 |
| 20260504175947 | 74 | 263 | 4.3 | 5.2 | 0.00 | 0.00 | 0.00 | 37 | 1014.2 |
| 20260504175444 | 73 | 120 | 1.7 | 1.7 | 0.00 | 0.00 | 0.00 | 38 | 1014.2 |
| 20260504174941 | 73 | 231 | 5.2 | 6.1 | 0.00 | 0.00 | 0.00 | 38 | 1014.4 |
| 20260504174439 | 73 | 246 | 7.0 | 8.7 | 0.00 | 0.00 | 0.00 | 38 | 1014.3 |
| 20260504173936 | 73 | 246 | 7.0 | 8.7 | 0.00 | 0.00 | 0.00 | 37 | 1014.4 |
| 20260504173432 | 73 | 169 | 2.6 | 5.2 | 0.00 | 0.00 | 0.00 | 38 | 1014.5 |
| 20260504172930 | 73 | 183 | 3.5 | 4.3 | 0.00 | 0.00 | 0.00 | 38 | 1014.5 |
| 20260504172426 | 73 | 205 | 3.5 | 4.3 | 0.00 | 0.00 | 0.00 | 38 | 1014.6 |
| 20260504171922 | 72 | 264 | 0.9 | 1.7 | 0.00 | 0.00 | 0.00 | 38 | 1014.8 |
| 20260504171420 | 72 | 260 | 3.5 | 4.3 | 0.00 | 0.00 | 0.00 | 39 | 1014.8 |
| 20260504170916 | 71 | 176 | 3.5 | 5.2 | 0.00 | 0.00 | 0.00 | 38 | 1014.9 |
| 20260504170413 | 71 | 198 | 2.6 | 4.3 | 0.00 | 0.00 | 0.00 | 39 | 1015.0 |
| 20260504160332 | 70 | 185 | 4.3 | 6.1 | 0.00 | 0.00 | 0.00 | 38 | 1015.4 |
| 20260504150756 | 67 | 248 | 3.5 | 4.3 | 0.00 | 0.00 | 0.00 | 44 | 1015.9 |
| 20260504150253 | 68 | 279 | 0.9 | 1.7 | 0.00 | 0.00 | 0.00 | 43 | 1016.1 |
| 20260504141223 | 64 | 271 | 2.6 | 4.3 | 0.00 | 0.00 | 0.00 | 49 | 1016.4 |
| 20260504140720 | 63 | 217 | 0.9 | 0.9 | 0.00 | 0.00 | 0.00 | 50 | 1016.4 |
| 20260504140215 | 62 | 266 | 0.0 | 0.9 | 0.00 | 0.00 | 0.00 | 51 | 1016.5 |
| 20260504130643 | 58 | 232 | 1.7 | 1.7 | 0.00 | 0.00 | 0.00 | 57 | 1016.9 |
| 20260504130140 | 57 | 182 | 6.1 | 6.1 | 0.00 | 0.00 | 0.00 | 58 | 1017.0 |
| 20260504120104 | 54 | 158 | 3.5 | 5.2 | 0.00 | 0.00 | 0.00 | 60 | 1017.3 |
| 20260504110531 | 53 | 204 | 2.6 | 4.3 | 0.00 | 0.00 | 0.00 | 61 | 1017.4 |
| 20260504100453 | 53 | 175 | 2.6 | 4.3 | 0.00 | 0.00 | 0.00 | 60 | 1017.1 |
| 20260504081847 | 54 | 215 | 0.9 | 1.7 | 0.00 | 0.00 | 0.00 | 56 | 1017.7 |
| 20260504081343 | 54 | 219 | 2.6 | 2.6 | 0.00 | 0.00 | 0.00 | 56 | 1017.7 |
| 20260504080838 | 54 | 243 | 0.0 | 0.9 | 0.00 | 0.00 | 0.00 | 56 | 1017.5 |
| 20260504080337 | 54 | 222 | 0.0 | 0.9 | 0.00 | 0.00 | 0.00 | 56 | 1017.6 |
| 20260504070304 | 54 | 198 | 0.0 | 0.9 | 0.00 | 0.00 | 0.00 | 57 | 1017.4 |
| 20260504060224 | 54 | 167 | 1.7 | 1.7 | 0.00 | 0.00 | 0.00 | 56 | 1018.2 |
| 20260504050652 | 54 | 205 | 0.9 | 1.7 | 0.00 | 0.00 | 0.00 | 56 | 1018.1 |
| 20260504050149 | 54 | 192 | 0.9 | 1.7 | 0.00 | 0.00 | 0.00 | 56 | 1018.0 |
| 20260504045646 | 54 | 206 | 0.9 | 1.7 | 0.00 | 0.00 | 0.00 | 55 | 1017.7 |
| 20260504045146 | 54 | 192 | 0.9 | 1.7 | 0.00 | 0.00 | 0.00 | 55 | 1017.8 |
| 20260504044644 | 54 | 185 | 0.9 | 1.7 | 0.00 | 0.00 | 0.00 | 55 | 1017.7 |
| 20260504044141 | 54 | 198 | 1.7 | 1.7 | 0.00 | 0.00 | 0.00 | 54 | 1017.8 |
| 20260504043638 | 54 | 221 | 1.7 | 2.6 | 0.00 | 0.00 | 0.00 | 54 | 1018.0 |
| 20260504043135 | 54 | 213 | 1.7 | 1.7 | 0.00 | 0.00 | 0.00 | 54 | 1017.8 |
| 20260504042632 | 54 | 219 | 2.6 | 2.6 | 0.00 | 0.00 | 0.00 | 54 | 1017.9 |
| 20260504042129 | 53 | 200 | 2.6 | 4.3 | 0.00 | 0.00 | 0.00 | 53 | 1017.7 |
| 20260504041625 | 53 | 195 | 0.9 | 0.9 | 0.00 | 0.00 | 0.00 | 53 | 1017.7 |
| 20260504041121 | 54 | 170 | 0.9 | 2.6 | 0.00 | 0.00 | 0.00 | 53 | 1017.8 |
| 20260504040618 | 54 | 167 | 2.6 | 2.6 | 0.00 | 0.00 | 0.00 | 52 | 1018.0 |
| 20260504040115 | 54 | 190 | 0.9 | 1.7 | 0.00 | 0.00 | 0.00 | 52 | 1018.0 |